Regional Weather Roundup
Issued by NWS

Home | Current Version | Previous Version | Graphics & Text | Print | Product List | Glossary On
Versions: 1 2 3 4 5 6 7 8 9 10 11 12 13 14 15 16 17 18 19 20 21 22 23 24 25 26 27 28 29 30 31 32 33 34 35 36 37 38 39 40 41 42 43 44 45 46 47 48 49 50
000
ASUS45 KSLC 032310
RWRUT

UTAH REGIONAL WEATHER ROUNDUP
NATIONAL WEATHER SERVICE SALT LAKE CITY UT
500 PM MDT FRI JUL 03 2015

UTZ001>011-023>025-040000-

NORTHERN UTAH

CITY           SKY/WX    TMP DP  RH WIND       PRES   REMARKS
BRIGHAM CITY   SUNNY     97  34  11 S3        29.93F HX  91
HILL AFB       SUNNY     95  43  16 VRB6      29.99F HX  91
LOGAN          SUNNY     96  41  15 S8        29.94F HX  92
OGDEN          SUNNY     98  39  13 W8        29.95F HX  93
PROVO AIRPORT  MOSUNNY   97  43  15 NW8       29.95F HX  92
SALT LAKE CITY MOSUNNY   98  43  15 NW10      29.92F HX  94
VERNAL         MOSUNNY   93  37  14 SW5       29.98F
WENDOVER       MOSUNNY   97  43  15 SE7       29.94F HX  92
HEBER CITY     SUNNY     95  34  11 N9        30.05S HX  90
WEST JORDAN    SUNNY     95  43  16 NW13      29.97F HX  91

$$

UTZ012>022-026-027-040000-

SOUTHERN/CENTRAL UTAH

CITY           SKY/WX    TMP DP  RH WIND       PRES   REMARKS
BLANDING       CLOUDY    84  47  28 W7        30.15F
BRYCE CANYON   CLOUDY    78  47  33 SW9       30.24F
CEDAR CITY     CLOUDY    89  42  19 N12       30.07F
DELTA          MOSUNNY   98  33  10 NW12      29.96F HX  92
HANKSVILLE     SUNNY    100  39  12 W9        29.92F HX  95
MILFORD        PTSUNNY   95  36  12 NE10      30.00F HX  90
MOAB/CYNLANDS  SUNNY     99  39  12 NW13      29.89F HX  94
PRICE          MOSUNNY   98  33  10 NE9G22    30.03F HX  92
ST GEORGE      CLOUDY    84  57  39 W21G43    29.89R THUNDER
KANAB          CLOUDY    82  57  42 NE3       30.08F

$$

REGIONAL REPORTS     COLORADO/ARIZONA

CITY           SKY/WX    TMP DP  RH WIND       PRES   REMARKS
CRAIG, CO      SUNNY     92  33  12 NE3       30.07F
GRAND JUNCTION PTSUNNY   96  44  16 W13       29.93F HX  92
RIFLE          PTSUNNY   90  44  20 S8        30.02F
MONTROSE       CLOUDY    80  49  33 W9        30.07F
CORTEZ         SUNNY     88  50  27 S7        30.08F
PAGE, AZ       MOSUNNY   96  45  17 VRB3      29.93F HX  92
GRAND CANYON     N/A    N/A N/A N/A MISG        N/A
KINGMAN        SUNNY     98  44  15 SW12G24   29.93F HX  94
FLAGSTAFF      MOSUNNY   82  48  30 NW9       30.20F

$$

REGIONAL REPORTS    NEVADA/IDAHO/WYOMING

CITY           SKY/WX    TMP DP  RH WIND       PRES   REMARKS
LAS VEGAS, NV  MOSUNNY  107  42  11 S8G20     29.73F HX 102
ELY            PTSUNNY   88  44  21 E10G20    30.12F
ELKO           MOSUNNY   95  44  17 SW7       30.00F HX  91
POCATELLO, ID  SUNNY     97  40  14 SW18      29.93F HX  92
BURLEY         MOSUNNY   92  49  22 W12       29.91F
EVANSTON, WY   MOSUNNY   85  36  17 W9        30.18F
ROCK SPRINGS   SUNNY     86  28  12 W8        30.12F
KEMMERER       MOSUNNY   86  32  14 NW17G23   30.19F

$$


USA.gov is the U.S. government's official web portal to all federal, state and local government web resources and services.